Regional Weather Roundup
Issued by NWS

Home | Current Version | Previous Version | Graphics & Text | Print | Product List | Glossary On
Versions: 1 2 3 4 5 6 7 8 9 10 11 12 13 14 15 16 17 18 19 20 21 22 23 24 25 26 27 28 29 30 31 32 33 34 35 36 37 38 39 40 41 42 43 44 45 46 47 48 49 50
000
ASUS43 KLSX 080507
RWRMO

WEATHER SUMMARY FOR MISSOURI
NATIONAL WEATHER SERVICE SPRINGFIELD MO
1100 PM CST WED DEC 07 2016

NOTE: "FAIR" INDICATES FEW OR NO CLOUDS BELOW 12,000 FEET WITH NO
       SIGNIFICANT WEATHER AND/OR OBSTRUCTIONS TO VISIBILITY.
       CURRENT SKY AND/OR WEATHER CONDITIONS ARE NOT AVAILABLE FOR
       CHILLICOTHE AND FARMINGTON.

MOZ001>031-035>038-043-044-053-054-080600-
...NORTHERN AND WESTERN MISSOURI...

CITY           SKY/WX    TMP DP  RH WIND       PRES   REMARKS
KANSAS CTY INT CLEAR     19   8  62 NW12      30.46R WCI   7
KANSAS C DTWN  CLEAR     23  10  57 W6        30.48R WCI  16
LEE`S SUMMIT   CLEAR     20  10  65 NW8       30.46R WCI  10
ST JOSEPH      CLEAR     19  10  68 NW10      30.48R WCI   7
CHILLICOTHE      N/A     21  10  62 W7        30.44R WCI  12
KIRKSVILLE     CLEAR     19  10  68 W12       30.37R WCI   7

$$
MOZ066>068-077>081-088>096-101>105-080600-
...SOUTHWEST MISSOURI...

CITY           SKY/WX    TMP DP  RH WIND       PRES   REMARKS
SPRINGFIELD    CLOUDY    27  22  81 NW16      30.41R WCI  15
JOPLIN         CLEAR     22  20  92 N5        30.47R WCI  16
BRANSON        CLOUDY    28  25  86 NW10      30.39R WCI  19

$$
MOZ032>034-039>042-045>050-055>058-069>072-080600-
...CENTRAL MISSOURI...

CITY           SKY/WX    TMP DP  RH WIND       PRES   REMARKS
COLUMBIA       CLEAR     23  12  62 NW10      30.41R WCI  12
JEFFERSON CITY MOCLDY    26  13  57 NW14G23   30.44R WCI  14
ROLLA          CLEAR     24  19  81 NW14      30.36R WCI  12
SEDALIA        CLEAR     22  13  68 NW8       30.45R WCI  12
WHITEMAN AFB   PTCLDY    21  14  75 W7        30.45R WCI  12
WARRENSBURG    CLEAR     21  12  68 W6        30.47R WCI  14
OSAGE BEACH    PTCLDY    25  17  72 NW7       30.43R WCI  17

$$
MOZ051-052-059>065-080600-
...EAST CENTRAL MISSOURI...

CITY           SKY/WX    TMP DP  RH WIND       PRES   REMARKS
ST LOUIS INTL  PTCLDY    30  16  56 W10       30.35R WCI  21
SPIRIT OF STL  CLEAR     29  16  58 NW15      30.37R WCI  18
ST CHARLES     CLEAR     29  17  61 NW17G30   30.35R WCI  17

$$
MOZ072>076-082>087-097>100-106>115-080600-
...SOUTH CENTRAL AND SOUTHEAST MISSOURI...

CITY           SKY/WX    TMP DP  RH WIND       PRES   REMARKS
CAPE GIRARDEAU CLOUDY    36  22  56 NW8       30.33R WCI  30
FARMINGTON     CLOUDY    30  24  78 NW9       30.34R WCI  22
POPLAR BLUFF   CLOUDY    37  23  56 N7        30.34R
WEST PLAINS    CLOUDY    31  24  75 N10       30.35R WCI  22

$$



USA.gov is the U.S. government's official web portal to all federal, state and local government web resources and services.